FW4689 Weather Reports


Display with metric or nautical units.
time (UTC)temp
F
wind
direction
speed
MPH
gust
MPH
rain 1hr
in
rain 24hr
in
rain mn
in
humidity
%
barometer
mb
20260506154504 58 99 2.0 4.0 0.00 0.00 0.00 75 1018.3
20260506153029 56 85 2.0 4.0 0.00 0.00 0.00 79 1018.4
20260506151520 55 77 1.0 3.0 0.00 0.00 0.00 82 1018.4
20260506150004 53 75 1.0 3.0 0.00 0.00 0.00 86 1018.2
20260506144536 52 50 1.0 2.0 0.00 0.00 0.00 91 1018.1
20260506143023 50 324 0.0 2.0 0.00 0.00 0.00 93 1018.0
20260506141527 48 322 1.0 3.0 0.00 0.00 0.00 92 1017.9
20260506140117 48 324 1.0 3.0 0.00 0.00 0.00 92 1017.8
20260506134515 47 325 0.0 3.0 0.00 0.00 0.00 92 1017.7
20260506133022 47 326 0.0 2.0 0.00 0.00 0.00 92 1017.7
20260506131541 47 326 0.0 2.0 0.00 0.00 0.00 92 1017.6
20260506130036 47 327 0.0 1.0 0.00 0.00 0.00 92 1017.5
20260506124517 47 324 2.0 3.0 0.00 0.00 0.00 92 1017.5
20260506123037 47 316 1.0 3.0 0.00 0.00 0.00 92 1017.4
20260506121513 47 314 0.0 3.0 0.00 0.00 0.00 92 1017.3
20260506120024 47 314 0.0 2.0 0.00 0.00 0.00 92 1017.2
20260506114525 47 314 1.0 2.0 0.00 0.00 0.00 92 1017.2
20260506113034 47 314 1.0 3.0 0.00 0.00 0.00 92 1017.2
20260506111534 47 314 0.0 0.0 0.00 0.00 0.00 92 1017.0
20260506110020 48 314 1.0 2.0 0.00 0.00 0.00 92 1017.1
20260506104530 48 314 2.0 3.0 0.00 0.00 0.00 92 1017.1
20260506103032 48 314 2.0 3.0 0.00 0.00 0.00 92 1017.0
20260506101526 48 314 2.0 4.0 0.00 0.00 0.00 92 1017.0
20260506100027 48 316 1.0 3.0 0.00 0.00 0.00 92 1017.0
20260506094534 48 318 2.0 4.0 0.00 0.00 0.00 92 1017.2
20260506093031 48 318 1.0 4.0 0.00 0.00 0.00 92 1017.2
20260506091530 48 320 1.0 4.0 0.00 0.00 0.00 92 1017.4
20260506090015 49 324 2.0 4.0 0.00 0.00 0.00 92 1017.6
20260506084523 49 4 2.0 4.0 0.00 0.00 0.00 92 1017.3
20260506083031 49 4 1.0 4.0 0.00 0.00 0.00 92 1017.6
20260506081529 49 22 1.0 3.0 0.00 0.00 0.00 91 1017.5
20260506073032 49 4 0.0 2.0 0.00 0.00 0.00 91 1017.4
20260506071522 50 4 0.0 3.0 0.00 0.00 0.00 91 1017.3
20260506061528 51 9 2.0 4.0 0.00 0.00 0.00 90 1016.7
20260506044531 53 109 0.0 2.0 0.00 0.00 0.00 88 1016.0
20260506043026 53 109 0.0 3.0 0.00 0.00 0.00 88 1015.8
20260506041517 53 109 0.0 3.0 0.00 0.00 0.00 88 1015.7
20260506040023 54 109 0.0 2.0 0.00 0.00 0.00 87 1015.4
20260506034525 55 109 0.0 2.0 0.00 0.00 0.00 86 1015.2
20260506033020 55 110 0.0 0.0 0.00 0.00 0.00 86 1014.9
20260506031532 56 110 0.0 0.0 0.00 0.00 0.00 85 1014.6
20260506030026 57 111 2.0 3.0 0.00 0.00 0.00 83 1014.4
20260506024535 58 115 0.0 3.0 0.00 0.00 0.00 81 1014.1
20260506023102 59 115 1.0 3.0 0.00 0.00 0.00 80 1014.0
20260506021516 60 116 0.0 2.0 0.00 0.00 0.00 79 1013.8
20260506020030 59 116 1.0 3.0 0.00 0.00 0.00 80 1013.9
20260506014512 59 116 1.0 3.0 0.00 0.00 0.00 80 1013.8
20260506013022 59 116 1.0 3.0 0.00 0.00 0.00 80 1013.8
20260506011528 60 115 2.0 4.0 0.00 0.00 0.00 79 1013.8
20260506010043 60 166 2.0 4.0 0.00 0.00 0.00 78 1013.9
20260506004521 61 167 4.0 8.0 0.00 0.00 0.00 76 1013.7
20260506003026 62 186 3.0 7.0 0.00 0.00 0.00 73 1013.8
20260506001529 62 160 2.0 5.0 0.00 0.00 0.00 74 1013.6
20260506000014 61 98 2.0 4.0 0.00 0.00 0.00 75 1013.6
20260505234524 62 88 4.0 8.0 0.00 0.00 0.00 75 1013.4
20260505233029 62 126 5.0 10.0 0.00 0.00 0.00 71 1013.6
20260505231513 62 162 5.0 10.0 0.00 0.00 0.00 71 1013.3
20260505230036 62 132 5.0 12.0 0.00 0.00 0.00 73 1013.5
20260505224525 63 149 5.0 8.0 0.00 0.00 0.00 70 1013.4
20260505223028 63 50 1.0 7.0 0.00 0.00 0.00 69 1013.7
20260505221517 63 267 1.0 6.0 0.00 0.00 0.00 70 1013.7
20260505220026 62 330 2.0 4.0 0.00 0.00 0.00 71 1013.9
20260505214527 61 12 1.0 5.0 0.00 0.00 0.00 72 1014.2
20260505213020 61 316 2.0 5.0 0.00 0.00 0.00 77 1014.4
20260505211522 61 274 3.0 6.0 0.00 0.00 0.00 78 1014.3
20260505210030 62 324 1.0 5.0 0.00 0.00 0.00 72 1014.4
20260505204516 64 182 4.0 10.0 0.00 0.00 0.00 64 1014.3
20260505203028 64 118 9.0 13.0 0.00 0.00 0.00 63 1014.1
20260505201523 64 165 5.0 9.0 0.00 0.00 0.00 63 1014.2
20260505200012 64 174 8.0 12.0 0.00 0.00 0.00 63 1014.1
20260505194559 64 181 5.0 10.0 0.00 0.00 0.00 63 1014.1
20260505193016 64 117 5.0 9.0 0.00 0.00 0.00 62 1014.4
20260505191522 63 118 5.0 11.0 0.00 0.00 0.00 65 1014.4
20260505190032 62 83 1.0 8.0 0.00 0.00 0.00 67 1014.6
20260505184526 62 131 5.0 8.0 0.00 0.00 0.00 69 1014.4
20260505183016 62 152 5.0 10.0 0.00 0.00 0.00 68 1014.4
20260505181527 62 108 7.0 10.0 0.00 0.00 0.00 68 1014.3
20260505180031 62 161 4.0 8.0 0.00 0.00 0.00 68 1014.1
20260505174520 61 98 7.0 10.0 0.00 0.00 0.00 68 1014.2
20260505173035 61 91 3.0 9.0 0.00 0.00 0.00 70 1014.1
20260505171540 60 96 4.0 9.0 0.00 0.00 0.00 72 1014.0
20260505170019 59 110 4.0 9.0 0.00 0.00 0.00 75 1013.8
20260505164523 58 129 4.0 8.0 0.00 0.00 0.00 75 1013.8
20260505163023 58 146 4.0 9.0 0.00 0.00 0.00 78 1013.9
20260505161514 58 122 5.0 8.0 0.00 0.00 0.00 78 1013.8